Flag for U.S.A. Weather past 2 weeks in Plano, Texas, U.S.A.

Now
77 °F

Clear.


Feels Like: 79 °F
Forecast: 69 / 87 °F
Wind: 10 mph from South

Location: McKinney Municipal Airport

Current Time: Oct 2, 2014 at 3:26:56 AM

Latest Report: Oct 2, 2014 at 2:53 AM


Visibility: 10 mi

Pressure: 29.75 "Hg

Humidity: 79%

Dew point: 70 °F

Location of PlanoLocation

Historic Weather in Plano — Graph

°F

Plano temperature yesterday

Maximum temperature yesterday: 90 °F (at 3:53 PM)
Minimum temperature yesterday: 72 °F (at 4:53 AM)
Average temperature yesterday: 80 °F

Past Weeks' High & Low Weather Summary

 TemperatureHumidityPressure
High93 °F (Sep 17, 4:53 PM)97% (Sep 19, 8:59 AM)30.22 "Hg (Sep 19, 8:59 AM)
Low52 °F (Sep 24, 7:53 AM)17% (Sep 24, 4:53 PM)29.71 "Hg (Oct 1, 5:53 PM)
Average75 °F63%30.00 "Hg
* Reported Sep 17 1:53 AM — Oct 2 1:53 AM, Plano, Weather by CustomWeather, © 2014

Note: Actual official high and low records may vary slightly from our data, if they occured in-between our weather recording intervals... More about our weather records

Advertising

Plano weather history for previous 24 hours

 ConditionsComfort  
Time TempWeatherWind HumidityBarometerVisibility
1:53 AM
Oct 2
77 °FClear.12 mph77%29.75 "Hg10 mi
12:53 AM78 °FClear.10 mph69%29.75 "Hg10 mi
11:53 PM
Oct 1
79 °FClear.8 mph67%29.76 "Hg10 mi
10:53 PM80 °FClear.8 mph64%29.76 "Hg10 mi
9:53 PM81 °FClear.8 mph62%29.76 "Hg10 mi
8:53 PM83 °FClear.8 mph59%29.75 "Hg10 mi
7:53 PM84 °FSunny.8 mph57%29.73 "Hg10 mi
6:53 PM88 °FSunny.12 mph50%29.72 "Hg10 mi
5:53 PM90 °FSunny.20 mph47%29.71 "Hg10 mi
4:53 PM90 °FPartly sunny.15 mph47%29.72 "Hg10 mi
3:53 PM90 °FScattered clouds.15 mph47%29.72 "Hg10 mi
2:53 PM89 °FPartly sunny.16 mph50%29.74 "Hg10 mi
1:53 PM88 °FScattered clouds.16 mph52%29.77 "Hg10 mi
12:53 PM87 °FPassing clouds.13 mph55%29.80 "Hg10 mi
11:53 AM85 °FScattered clouds.15 mph59%29.81 "Hg10 mi
10:53 AM80 °FPartly sunny.13 mph71%29.82 "Hg10 mi
9:53 AM78 °FOvercast.15 mph76%29.82 "Hg10 mi
8:53 AM75 °FPartly sunny.10 mph85%29.81 "Hg10 mi
7:53 AM73 °FPassing clouds.9 mph90%29.81 "Hg9 mi
6:53 AM72 °FClear.10 mph91%29.78 "Hg10 mi
5:53 AM72 °FClear.9 mph91%29.77 "Hg10 mi
4:53 AM72 °FClear.7 mph91%29.78 "Hg10 mi
3:53 AM73 °FClear.7 mph88%29.77 "Hg10 mi
Weather by CustomWeather, © 2014

See weather overviewHow to use our weather pages